Simultaneous Nadir Overpasses (SNOs) Predictions

Prediction of SNOs between GOES-16 and LANDSAT-8 Satellite Orbit:

Table of predicted SNOs for the next 14.0 days since TLE Epoch: 8/17/2024
Index Date Time (GOES-16) GOES-16 Lat,Lon LANDSAT-8 Lat,Lon Distance(km) Time Diff (sec)
1 08/17/2024 15:08:53 -0.03, -75.21 -0.31, -73.94 144.68 80
2 08/18/2024 03:27:38 0.04, -75.21 -0.79, -79.13 446.10 80
3 08/19/2024 14:56:43 -0.04, -75.22 -0.92, -70.98 481.47 80
4 08/20/2024 03:18:08 0.04, -75.22 -0.16, -76.18 109.00 80
5 08/22/2024 03:03:17 0.04, -75.23 0.46, -73.22 229.31 80
6 08/22/2024 15:24:33 -0.04, -75.24 0.60, -78.38 355.94 80
7 08/24/2024 15:12:21 -0.04, -75.27 -0.03, -75.42 16.62 80
8 08/26/2024 15:02:48 -0.03, -75.29 -0.64, -72.45 323.64 80
9 08/27/2024 03:24:12 0.03, -75.30 -0.45, -77.64 265.87 80
10 08/29/2024 03:09:18 0.03, -75.33 0.17, -74.67 75.23 80
